Weather History for Pompano Beach, FL

Change the Weather History Date:

Saturday, November 5, 2011

  Actual Average Record
Temperature  
Mean Temperature 69 °F -  
Max Temperature 80 °F 83 °F 92 °F (1973)
Min Temperature 59 °F 65 °F 48 °F (1970)
Cooling Degree Days 4    
Growing Degree Days 19 (Base 50)    
Moisture  
Dew Point 58 °F    
Average Humidity 68    
Maximum Humidity 88    
Minimum Humidity 52    
Precipitation  
Precipitation 0.15 in - - ()
Sea Level Pressure  
Sea Level Pressure 29.96 in    
Wind  
Wind Speed 13 mph (North)    
Max Wind Speed 22 mph    
Max Gust Speed 31 mph    
Visibility 10 miles    
Events Rain    
Averages and records for this station are not official NWS values.
T = Trace of Precipitation, MM = Missing Value Source: NWS Daily Summary

Daily Weather History Graph

Daily Weather History Graph

Search for Another Location

Airport:

Trip Planner

Search our weather history database for the weather conditions in past years. The results will help you decide how hot, cold, wet, or windy it might be!

Date:

Astronomy

Nov. 05, 2011 Rise Set
Actual Time 7:31 AM EDT 6:35 PM EDT
Civil Twilight 7:07 AM EDT 6:59 PM EDT
Nautical Twilight 6:40 AM EDT 7:27 PM EDT
Astronomical Twilight 6:13 AM EDT 7:54 PM EDT
Moon 3:31 PM EDT (11/5) 3:05 AM EDT (11/5)
Length of Visible Light 11h 51m
Length of Day
11h 03m
Waxing Gibbous, 78% of the Moon is Illuminated
Nov 5
Waxing Gibbous
Nov 10
Full
Nov 18
Last Quarter
Nov 25
New
Dec 2
First Quarter

Hourly Weather History & Observations

Time (EDT) Temp. Dew Point Humidity Pressure Visibility Wind Dir Wind Speed Gust Speed Precip Events Conditions
12:53 AM 62.1 °F 50.0 °F 65% 29.94 in 10.0 mi NW 12.7 mph - N/A   Clear
1:53 AM 61.0 °F 51.1 °F 70% 29.94 in 10.0 mi NW 11.5 mph - N/A   Clear
2:53 AM 60.1 °F 51.1 °F 72% 29.93 in 10.0 mi NW 11.5 mph - N/A   Clear
3:53 AM 60.1 °F 50.0 °F 69% 29.92 in 10.0 mi NW 11.5 mph - N/A   Clear
4:53 AM 59.0 °F 50.0 °F 72% 29.92 in 10.0 mi NNW 13.8 mph - N/A   Clear
5:53 AM 59.0 °F 50.0 °F 72% 29.93 in 10.0 mi NNW 12.7 mph - N/A   Clear
6:53 AM 59.0 °F 48.9 °F 69% 29.94 in 10.0 mi NNW 11.5 mph - N/A   Clear
8:53 AM 63.0 °F 52.0 °F 67% 29.98 in 10.0 mi NW 13.8 mph - N/A   Clear
9:53 AM 66.9 °F 54.0 °F 63% 29.99 in 10.0 mi NW 10.4 mph - N/A   Clear
12:53 PM 77.0 °F 59.0 °F 54% 29.96 in 10.0 mi NW 9.2 mph 16.1 mph N/A   Partly Cloudy
1:53 PM 79.0 °F 60.1 °F 52% 29.95 in 10.0 mi NNW 10.4 mph - N/A   Scattered Clouds
3:53 PM 79.0 °F 63.0 °F 58% 29.94 in 10.0 mi NNE 17.3 mph 27.6 mph N/A   Mostly Cloudy
4:53 PM 78.1 °F 62.1 °F 58% 29.95 in 10.0 mi NNE 19.6 mph 31.1 mph N/A   Mostly Cloudy
5:53 PM 77.0 °F 62.1 °F 60% 29.96 in 10.0 mi NNE 21.9 mph 27.6 mph N/A   Mostly Cloudy
6:53 PM 75.9 °F 63.0 °F 64% 29.96 in 10.0 mi NNE 18.4 mph 25.3 mph N/A   Partly Cloudy
7:53 PM 75.9 °F 63.0 °F 64% 29.98 in 10.0 mi North 12.7 mph - N/A   Partly Cloudy
8:53 PM 73.0 °F 66.0 °F 79% 29.99 in 10.0 mi North 10.4 mph - 0.04 in   Mostly Cloudy
9:53 PM 71.1 °F 66.9 °F 87% 30.01 in 6.0 mi NW 10.4 mph - 0.05 in Rain Light Rain
10:07 PM 69.8 °F 66.2 °F 88% 30.01 in 7.0 mi North 10.4 mph 18.4 mph 0.04 in Rain Light Rain
10:53 PM 73.0 °F 66.0 °F 79% 30.02 in 10.0 mi NE 17.3 mph - 0.05 in   Overcast
11:53 PM 73.9 °F 66.0 °F 76% 30.01 in 10.0 mi ENE 16.1 mph 23.0 mph 0.01 in Rain Light Rain